TimeNST,TemperatureF,Dew PointF,Humidity,Sea Level PressureIn,VisibilityMPH,Wind Direction,Wind SpeedMPH,Gust SpeedMPH,PrecipitationIn,Events,Conditions,WindDirDegrees,DateUTC
12:30 AM,37.4,32.0,81,29.86,15.0,NE,12.7,-,N/A,,Clear,50,2012-11-24 04:00:00
1:30 AM,37.4,32.0,81,29.85,15.0,ENE,10.4,-,N/A,,Clear,60,2012-11-24 05:00:00
2:30 AM,37,33,81,29.83,15,ENE,6.9,,,,,60,2012-11-24 06:00:00
2:30 AM,37.4,33.8,87,29.83,15.0,ENE,6.9,-,N/A,,Clear,60,2012-11-24 06:00:00
3:30 AM,35.6,33.8,93,29.85,15.0,East,5.8,-,N/A,,Clear,90,2012-11-24 07:00:00
4:30 AM,37.4,35.6,93,29.83,15.0,East,11.5,-,N/A,,Partly Cloudy,100,2012-11-24 08:00:00
5:30 AM,39.2,37.4,93,29.81,15.0,ENE,9.2,-,N/A,,Partly Cloudy,60,2012-11-24 09:00:00
6:30 AM,41.0,37.4,87,29.79,15.0,ENE,9.2,-,N/A,,Partly Cloudy,60,2012-11-24 10:00:00
7:30 AM,42.8,41.0,93,29.78,15.0,ENE,9.2,-,N/A,,Mostly Cloudy,70,2012-11-24 11:00:00
8:30 AM,45,42,86,29.78,15,ENE,8.1,,,,Partly Cloudy,60,2012-11-24 12:00:00
8:30 AM,44.6,42.8,93,29.78,15.0,ENE,8.1,-,N/A,,Mostly Cloudy,60,2012-11-24 12:00:00
9:30 AM,48.2,44.6,87,29.75,15.0,East,6.9,-,N/A,,Scattered Clouds,90,2012-11-24 13:00:00
10:30 AM,50.0,44.6,82,29.73,15.0,ENE,11.5,-,N/A,,Partly Cloudy,70,2012-11-24 14:00:00
11:30 AM,51.8,46.4,82,29.70,15.0,ESE,17.3,27.6,N/A,,Mostly Cloudy,110,2012-11-24 15:00:00
12:30 PM,55.4,46.4,72,29.66,15.0,ESE,15.0,20.7,N/A,,Mostly Cloudy,120,2012-11-24 16:00:00
1:30 PM,53.6,44.6,72,29.61,15.0,ESE,17.3,25.3,N/A,,Mostly Cloudy,110,2012-11-24 17:00:00
2:30 PM,53,43,58,29.56,15,East,16.1,,,,Partly Cloudy,90,2012-11-24 18:00:00
2:30 PM,51.8,42.8,71,29.56,15.0,East,16.1,23.0,N/A,,Mostly Cloudy,90,2012-11-24 18:00:00
3:24 PM,-9999,-9999,N/A,-9999,15.0,East,11.5,-,N/A,Rain,Light Rain Showers,90,2012-11-24 18:54:00
3:30 PM,51.8,42.8,71,29.52,15.0,East,9.2,-,N/A,Rain,Light Rain Showers,90,2012-11-24 19:00:00
4:30 PM,48.2,46.4,93,29.47,12.0,East,16.1,24.2,N/A,Rain,Light Rain Showers,100,2012-11-24 20:00:00
5:30 PM,50.0,48.2,94,29.41,12.0,East,17.3,25.3,N/A,Rain,Light Rain,80,2012-11-24 21:00:00
6:30 PM,50.0,48.2,94,29.34,10.0,ENE,18.4,27.6,N/A,Rain,Light Rain,70,2012-11-24 22:00:00
7:30 PM,50.0,48.2,94,29.27,12.0,NE,12.7,-,N/A,Rain,Light Rain,40,2012-11-24 23:00:00
8:30 PM,49,47,90,29.24,10,ENE,16.1,,,Rain,Light Rain,60,2012-11-25 00:00:00
8:30 PM,50.0,46.4,87,29.24,10.0,ENE,16.1,-,N/A,Rain,Light Rain,60,2012-11-25 00:00:00
9:30 PM,48.2,46.4,93,29.16,10.0,ENE,11.5,-,N/A,Rain,Light Rain,60,2012-11-25 01:00:00
10:05 PM,-9999,-9999,N/A,-9999,10.0,ENE,8.1,-,N/A,,Overcast,60,2012-11-25 01:35:00
10:30 PM,48.2,46.4,93,29.11,12.0,North,3.5,-,N/A,,Overcast,360,2012-11-25 02:00:00
10:35 PM,-9999,-9999,N/A,-9999,12.0,North,3.5,-,N/A,Rain,Light Rain,360,2012-11-25 02:05:00
11:30 PM,48.2,46.4,93,29.07,12.0,NE,4.6,-,N/A,Rain,Light Rain,50,2012-11-25 03:00:00
11:46 PM,-9999,-9999,N/A,-9999,15.0,SE,3.5,-,N/A,,Overcast,130,2012-11-25 03:16:00